Victoria, TX

12:22 AM CST on December 06, 2019 (GMT -0600)
Victoria Regional

Weather History for KVCT - October, 2019

Change the Weather History Date:

Monday, October 28, 2019

  Actual Average Record
Temperature  
Mean Temperature 71 °F 69 °F  
Max Temperature 84 °F 80 °F 95 °F (1926)
Min Temperature 57 °F 58 °F 36 °F (1957)
Degree Days  
Heating Degree Days 0 2  
Month to date heating degree days 16 14  
Since 1 July heating degree days 16 15  
Cooling Degree Days 6 6  
Month to date cooling degree days 290 229  
Year to date cooling degree days 3555 3027  
Growing Degree Days 21 (Base 50)    
Moisture  
Dew Point 64 °F    
Average Humidity 81    
Maximum Humidity 100    
Minimum Humidity 53    
Precipitation  
Precipitation 0.00 in 0.12 in 2.58 in (2002)
Month to date precipitation 2.32 4.25  
Year to date precipitation 21.68 35.28  
Snow  
Snow 0.00 in 0.00 in 0.00 in (2002)
Month to date snowfall 0.0 0.0  
Since 1 July snowfall 0.0 0.0  
Since 1 September snowfall 0.0 0.0  
Snow Depth 0.00 in    
Sea Level Pressure  
Sea Level Pressure 29.93 in    
Wind  
Wind Speed 7 mph ()    
Max Wind Speed 18 mph    
Max Gust Speed 23 mph    
Visibility 8.9 miles    
Events      
T = Trace of Precipitation, MM = Missing Value Source: Averaged Metar Reports

Daily Weather History Graph

Daily Weather History Graph

Search for Another Location

Airport or City:

Astronomy

Oct. 28, 2019 Rise Set
Actual Time 7:37 AM CDT 6:45 PM CDT
Civil Twilight 7:12 AM CDT 7:09 PM CDT
Nautical Twilight 6:44 AM CDT 7:37 PM CDT
Astronomical Twilight 6:17 AM CDT 8:05 PM CDT
Moon 8:01 AM CDT (10/28) 7:32 PM CDT (10/28)
Length of Visible Light 11h 56m
Length of Day
11h 08m
New Moon, 0% of the Moon is Illuminated
Oct 28
New Moon
Nov 4
First Quarter
Nov 12
Full
Nov 19
Last Quarter
Nov 26
New

Hourly Weather History & Observations

Time (CDT) Temp. Heat Index Dew Point Humidity Pressure Visibility Wind Dir Wind Speed Gust Speed Precip Events Conditions
12:51 AM 60.1 °F - 57.0 °F 90% 29.95 in 10.0 mi East 5.8 mph - N/A   Clear
1:51 AM 57.0 °F - 55.9 °F 96% 29.95 in 7.0 mi East 3.5 mph - N/A   Clear
2:51 AM 57.9 °F - 55.9 °F 93% 29.94 in 7.0 mi ENE 5.8 mph - N/A   Clear
3:51 AM 57.9 °F - 55.9 °F 93% 29.94 in 7.0 mi ENE 6.9 mph - N/A   Partly Cloudy
4:51 AM 57.9 °F - 55.9 °F 93% 29.94 in 7.0 mi NE 5.8 mph - N/A   Mostly Cloudy
5:27 AM 59.0 °F - 57.0 °F 93% 29.94 in 8.0 mi NE 5.8 mph - N/A   Scattered Clouds
5:51 AM 57.9 °F - 57.0 °F 97% 29.94 in 7.0 mi NE 5.8 mph - N/A   Clear
6:51 AM 57.9 °F - 55.9 °F 93% 29.95 in 7.0 mi ENE 5.8 mph - N/A   Clear
7:51 AM 57.9 °F - 57.0 °F 97% 29.96 in 5.0 mi NE 5.8 mph - N/A   Partly Cloudy
8:51 AM 64.0 °F - 61.0 °F 90% 29.96 in 9.0 mi ENE 5.8 mph - N/A   Clear
9:51 AM 69.1 °F - 64.9 °F 87% 29.98 in 10.0 mi ENE 5.8 mph - N/A   Mostly Cloudy
10:51 AM 75.0 °F - 66.9 °F 76% 29.98 in - East 6.9 mph - N/A   Overcast
11:51 AM 82.0 °F 84.5 °F 66.9 °F 60% 29.96 in 10.0 mi ESE 10.4 mph - N/A   Scattered Clouds
12:51 PM 84.9 °F 87.1 °F 66.0 °F 53% 29.94 in 10.0 mi SE 15.0 mph - N/A   Scattered Clouds
1:51 PM 82.0 °F 84.1 °F 66.0 °F 58% 29.91 in 10.0 mi SE 13.8 mph - N/A   Overcast
2:51 PM 84.9 °F 88.2 °F 68.0 °F 57% 29.88 in 10.0 mi SE 15.0 mph - N/A   Mostly Cloudy
3:51 PM 82.0 °F 84.5 °F 66.9 °F 60% 29.88 in 10.0 mi ESE 13.8 mph - N/A   Scattered Clouds
4:51 PM 82.0 °F 84.5 °F 66.9 °F 60% 29.88 in 10.0 mi SE 15.0 mph - N/A   Scattered Clouds
5:51 PM 80.1 °F 82.1 °F 66.0 °F 62% 29.88 in 10.0 mi SE 16.1 mph - N/A   Partly Cloudy
6:51 PM 77.0 °F - 66.9 °F 71% 29.89 in 10.0 mi ESE 13.8 mph - N/A   Partly Cloudy
7:51 PM 75.0 °F - 68.0 °F 79% 29.90 in 10.0 mi ESE 10.4 mph - N/A   Clear
8:51 PM 73.9 °F - 69.1 °F 85% 29.92 in 10.0 mi East 9.2 mph - N/A   Clear
9:27 PM 73.0 °F - 69.1 °F 87% 29.93 in 10.0 mi East 9.2 mph - N/A   Partly Cloudy
9:51 PM 73.0 °F - 70.0 °F 90% 29.93 in 10.0 mi East 8.1 mph - N/A   Overcast
10:04 PM 73.0 °F - 70.0 °F 90% 29.94 in 10.0 mi East 10.4 mph - N/A   Overcast
10:51 PM 73.0 °F - 69.1 °F 87% 29.95 in 9.0 mi ENE 8.1 mph - N/A   Overcast
11:16 PM 73.0 °F - 69.1 °F 87% 29.95 in 9.0 mi East 9.2 mph - N/A   Overcast
11:51 PM 73.0 °F - 70.0 °F 90% 29.95 in 9.0 mi East 8.1 mph - N/A   Overcast